User: anonymous
Location: Clatteringshaws Loch
(55.0508°N, 4.2860°W)
Time: 12:43:52
(UTC+01:00)
Language:

Sapphire - Orbit

View from above orbital plane
View from above orbital plane
View from above satellite
View from above satellite

Ground track
Ground track

The orbit data is extracted from the following two-line orbital elements,

1 26932U 01043D   14113.69846940  .00000128  00000-0  81757-4 0  5940
2 26932 067.0558 179.8656 0004470 263.7796 216.8280 14.29993302655861
Epoch (UTC): 23 April 2014 16:45:47
Eccentricity: 0.0004470
inclination: 67.0558°
perigee height: 788 km
apogee height: 795 km
right ascension of ascending node: 179.8656°
argument of perigee: 263.7796°
revolutions per day: 14.29993302
mean anomaly at epoch: 216.8280°
orbit number at epoch: 65586

The dashed part of the orbit path shows where the satellite is in the earth's shadow,  

DLR